Location: St. Louis
(38.6270°N, 90.1994°W)
Time: 19:57:08
(UTC-06:00)

ISS - Pass Details

Date: 22 May 2018
Orbit: 418 x 421 km, 51.6° (Epoch: 24 November)

Event Time Altitude Azimuth Distance (km) Brightness Sun altitude
Rises 21:57:58 0° 313° (NW) 2,497 2.0 -17.4°
Reaches altitude 10° 22:01:17 10° 345° (NNW) 1,635 0.2 -17.8°
Maximum altitude 22:02:50 12° 10° (N) 1,508 -0.5 -18.1°
Drops below altitude 10° 22:04:24 10° 35° (NE) 1,645 -0.6 -18.3°
Enters shadow 22:06:39 - 60° (ENE) 2,186 -0.2 -18.6°
